Other Surface Observations
Issued by NWS

Home | Current Version | Previous Version | Text Only | Print | Product List | Glossary On
Versions: 1 2 3 4 5 6 7 8 9 10 11 12 13 14 15 16 17 18 19 20 21 22 23 24 25 26 27 28 29 30 31 32 33 34 35 36 37 38 39 40 41 42 43 44 45 46 47 48 49 50
654
SXUS52 KTAE 230618
OSOTAE
OSOTAE
North Florida/South Alabama/Southwest Georgia Weather Roundup
National Weather Service Tallahassee Florida
200 AM EDT THU MAR 23 2017

Note: "fair" indicates few or no clouds below 12,000 feet with no
significant weather and/or obstructions to visibility.

!FLZ017-115-028-034-025-230700
...North Florida...

CITY           SKY/WX    TMP DP  RH WIND       PRES   REMARKS
TALLAHASSEE    MOCLDY    69  58  67 E12       30.19R
APALACHICOLA   CLEAR     71  54  54 NE14      30.13R
PERRY          CLEAR     66  56  70 E5        30.20S
CROSS CITY     CLOUDY    64  59  82 NE5       30.19R
JACKSONVILLE   PTCLDY    63  58  83 NE10      30.21R
$$

!FLZ112-006-005-002-011-230700
...Florida Panhandle...

CITY           SKY/WX    TMP DP  RH WIND       PRES   REMARKS
MARIANNA       MOCLDY    68  45  43 N7        30.19R
BONIFAY        FAIR      66  45  46 N7        30.20S
PANAMA CITY NW MOCLDY    69  50  50 N8        30.16R
TYNDALL AFB    CLEAR     69  53  57 NE7       30.16R
TYND DRONE APT FAIR      66  56  70 N15G24    30.15S
DE FUNIAK SPR  FAIR      66  45  45 NE10      30.20S
EGLIN AFB      PTCLDY    69  51  53 NE9       30.16S
DESTIN         PTCLDY    71  57  61 N5        30.17R
HURLBURT       CLEAR     70  48  46 N9        30.15S
CRESTVIEW      PTCLDY    67  47  48 NE7       30.20S
PENSACOLA      PTCLDY    72  51  47 NE7       30.17S
$$

!ALZ063-066-230700
...South Alabama...

CITY           SKY/WX    TMP DP  RH WIND       PRES   REMARKS
DOTHAN         PTCLDY    62  43  49 NE9       30.24S
OZARK CAIRNS   PTCLDY    63  40  43 NE9       30.20F
FT RUCKER HELI PTCLDY    63  41  44 NE5       30.20F
RUCKER HELI 3  FAIR      62  40  43 NE9       30.20F
RUCKER HELI 2  FAIR      64  39  39 NE8       30.20S
FLORALA APT    PTCLDY    63  44  50 NE8       30.22S
ANDALUSIA      PTCLDY    65  42  43 NE6       30.21R
TROY           CLEAR     59  39  47 NE7       30.24R
EUFALA         FAIR      61  39  44 VRB5      30.23S
MOBILE         CLEAR     67  54  63 NE8       30.18S
$$

!GAZ120>161-230700
...Southwest and South Central Georgia...

CITY           SKY/WX    TMP DP  RH WIND       PRES   REMARKS
THOMASVILLE    FAIR      64  54  68 E12       30.24R
BAINBRIDGE     CLEAR     70  55  60 E9G17     30.21R
MOODY AFB      PTCLDY    60  53  78 E6        30.23R
VALDOSTA       PTCLDY    62  52  69 E6        30.23R
MOULTRIE       CLEAR     64  52  63 E7        30.25R
BLAKELY        MOCLDY    64  46  52 CALM      30.22S
ALBANY         CLOUDY    66  54  65 E6        30.25R
TIFTON         CLOUDY    63  53  70 E6        30.24S
FITZGERALD     FAIR      62  53  72 E7        30.29R
CORDELE        CLOUDY    68  51  53 SE18      30.27R
AMERICUS       MOCLDY    59  45  58 NE6       30.26S
HOMERVILLE     FAIR      59  55  88 CALM      30.25R
$$

!GMZ750-755-770-775-230700
...Coastal and Buoy Obs...

STATION/POSITION TIME  TEMP    WIND        PRES    VSBY  WAVE
                       AIR SEA DIR/SP/G                  HT/PER
                 (UTC) (F)     (DEG/KT/KT) (MB)    (MI)  (FT/S)
KEATON BEACH     0600   65      60/ 10/ 14 1021.5R
CEDAR KEY        0600   68      90/  8/ 10 1021.8F
C TOWER          0600   70     360/ 13/ 14 1020.5F
APALACHICOLA BUO 0550   69 68  290/  8/ 10 1020.1F         2/ 6
PANAMA CITY BUOY 0550   71 71              1020.9R         2/ 5
MOBILE BUOY      0600   72 73  280/ 12/ 14 1021.0
ORANGE BCH AL BU 0550   69 69   30/  4/  4 1021.4F         1/ 4
$$




USA.gov is the U.S. government's official web portal to all federal, state and local government web resources and services.